Regional Weather Roundup
Issued by NWS Kansas City/Pleasant Hill, MO

Home | Current Version | Previous Version | Graphics & Text | Print | Product List | Glossary Off
Versions: 1 2 3 4 5 6 7 8 9 10 11 12 13 14 15 16 17 18 19 20 21 22 23 24 25 26 27 28 29 30 31 32 33 34 35 36 37 38 39 40 41 42 43 44 45 46 47 48 49 50

000
ASUS43 KEAX 302111
RWREAX

WEATHER ROUNDUP FOR EASTERN KANSAS AND NORTHWEST MISSOURI
NATIONAL WEATHER SERVICE KANSAS CITY/PLEASANT HILL MO
400 PM CDT TUE SEP 30 2014

KSZ040-057-103>105-MOZ028-029-037-043-302200-
...KANSAS CITY METROPOLITAN AREA...

CITY           SKY/WX    TMP DP  RH WIND       PRES   REMARKS
K.C. INTL      MOSUNNY   83  59  44 S14G21    29.81F
K.C. DOWNTOWN  SUNNY     84  56  38 S16G29    29.80F
LEES SUMMIT    MOSUNNY   83  56  39 S9G20     29.82F
OLATHE - IXD   MOSUNNY   82  58  43 S13G23    29.82F
OLATHE - OJC   MOSUNNY   82  58  43 S16G23    29.81F
LAWRENCE       MOSUNNY   83  58  42 SE18      29.79F

$$

MOZ001>008-011>017-020>025-030>033-038>040-044>046-053-054-302200-
...NORTHERN AND CENTRAL MISSOURI...

CITY           SKY/WX    TMP DP  RH WIND       PRES   REMARKS
ST. JOSEPH     PTSUNNY   84  58  40 S14       29.79F
MOSBY          PTCLDY    82  54  36 S12G20    29.81F
WHITEMAN AFB   MOSUNNY   84  59  42 SW12      29.84F
CLINTON        SUNNY     84  61  45 S9        29.85F HAZE
SEDALIA        MOSUNNY   84  57  39 SW14      29.85F
WARSAW         NOT AVBL
MARSHALL       MOSUNNY   88  57  35 S9        29.84F
CHILLICOTHE      N/A     83  58  42 S6        29.83F
MOBERLY        SUNNY     88  46  23 E5        29.86F
KIRKSVILLE     SUNNY     74  62  66 E10       29.89F

$$

MOZ041-047>049-056>058-063>065-088>090-097-302200-
...EASTERN AND SOUTHERN MISSOURI...

CITY           SKY/WX    TMP DP  RH WIND       PRES   REMARKS
ST. LOUIS INTL PTSUNNY   85  56  37 E6        29.89F
SPIRIT OF STL  PTSUNNY  N/A N/A N/A CALM      29.86F
COLUMBIA       PTSUNNY   84  55  36 VRB3      29.86F
JEFFERSON CITY SUNNY     87  51  28 S6        29.84F
HANNIBAL       SUNNY     79  57  47 E7        29.89F
ROLLA          CLOUDY    82  52  35 SE6       29.86F
LEBANON        SUNNY     84  52  32 SW8       29.88F
OSAGE BEACH    MOSUNNY   82  57  42 S5        29.86F
SPRINGFIELD    SUNNY     83  53  35 S8        29.87F
BRANSON        PTSUNNY   86  54  32 S8        29.90F
NEVADA         SUNNY     84  57  39 S10       29.84  HAZE
JOPLIN         MOSUNNY   82  58  43 S13       29.84F
WEST PLAINS    SUNNY     81  51  35 MISG      29.91F

$$

IAZ060-094-KSZ022-034>040-054-083-096-NEZ052-066-093-302200-
...KANSAS...SOUTHEAST NEBRASKA AND IOWA...

CITY           SKY/WX    TMP DP  RH WIND       PRES   REMARKS
TOPEKA         MOSUNNY   85  57  38 S16       29.77F
MANHATTAN      CLOUDY    84  60  44 S17G23    29.73F
EMPORIA        PTSUNNY   82  62  50 S15       29.78F
CHANUTE        SUNNY     83  61  47 S16       29.80F
WICHITA        PTSUNNY   88  58  36 S21G28    29.73F
OMAHA          RAIN      66  63  90 S5        29.80F FOG
LINCOLN        LGT RAIN  65  63  93 S10       29.79F FOG
FALLS CITY     LGT RAIN  78  61  55 S9        29.77F
LAMONI         MOSUNNY   78  65  63 SE6       29.83F
DES MOINES     PTSUNNY   69  59  70 E13       29.86F

$$




USA.gov is the U.S. government's official web portal to all federal, state and local government web resources and services.